Tracking 33873 objects as of 21-Apr-2026
HD Live streaming from Space Station
objects crossing your sky now

SL-8 DEB

Track SL-8 DEB now!
10-day predictions


NORAD ID: 21936
Int'l Code: 1991-009CD
Perigee: 1,470.0 km
Apogee: 1,895.0 km
Inclination: 74.1 °
Period: 119.9 minutes
Semi major axis: 8053 km
RCS: 0.0437 m2 (small)
Launch date: February 12, 1991
Source: Commonwealth of Independent States (former USSR) (CIS)
Launch site: PLESETSK MISSILE AND SPACE COMPLEX (PKMTR)

Note: This is SATELLITE DEBRIS
Your satellite tracking list
Your tracking list is empty




NASA's NSSDC Master Catalog

Two Line Element Set (TLE):
1 21936U 91009CD  26110.04121818  .00000000  00000-0  16854-3 0  9992
2 21936  74.0601 132.4215 0263866 277.1941 108.1981 12.01226247501776
Source of the keplerian elements: AFSPC